Flag for Canada Weather past 2 weeks in Steinbach, Manitoba, Canada

Now
61 °F

Cool.


Feels Like: 61 °F
Forecast: 51 / 76 °F
Wind: 2 mph from Northwest

Location: Winnipeg The Forks

Current Time: Jul 28, 2014 at 9:24:29 AM

Latest Report: Jul 28, 2014 at 8:00 AM


Visibility: N/A

Pressure: 30.26 "Hg

Humidity: 67%

Dew point: 50 °F

Location of SteinbachLocation

Historic Weather in Steinbach — Graph

°F

Steinbach temperature yesterday

Maximum temperature yesterday: 69 °F (at 1:00 PM)
Minimum temperature yesterday: 59 °F (at 7:00 AM)
Average temperature yesterday: 64 °F

Past Weeks' High & Low Weather Summary

 TemperatureHumidityPressure
High88 °F (Jul 20, 3:00 PM)95% (Jul 15, 5:00 AM)30.33 "Hg (Jul 15, 5:00 AM)
Low49 °F (Jul 14, 3:00 AM)28% (Jul 25, 5:00 PM)29.49 "Hg (Jul 20, 2:00 PM)
Average67 °F65%29.90 "Hg
* Reported Jul 13 8:00 AM — Jul 28 8:00 AM, Steinbach, Weather by CustomWeather, © 2014

Note: Actual official high and low records may vary slightly from our data, if they occured in-between our weather recording intervals... More about our weather records

Advertising

Steinbach weather history for previous 24 hours

 ConditionsComfort  
Time TempWeatherWind HumidityBarometerVisibility
8:00 AM
Jul 28
61 °FCool.2 mph67%30.26 "HgN/A
7:00 AM58 °FCool.2 mph78%30.26 "HgN/A
6:00 AM56 °FCool.2 mph76%30.24 "HgN/A
5:00 AM56 °FCool.1 mph81%30.24 "HgN/A
4:00 AM58 °FCool.3 mph72%30.23 "HgN/A
3:00 AM58 °FCool.3 mph77%30.23 "HgN/A
2:00 AM60 °FCool.5 mph70%30.22 "HgN/A
1:00 AM62 °FCool.6 mph62%30.22 "HgN/A
12:00 AM64 °FMild.2 mph60%30.21 "HgN/A
11:00 PM
Jul 27
64 °FMild.3 mph67%30.21 "HgN/A
10:00 PM65 °FMild.5 mph64%30.20 "HgN/A
9:00 PM67 °FMild.6 mph59%30.19 "HgN/A
8:00 PM69 °FMild.6 mph48%30.18 "HgN/A
7:00 PM68 °FMild.5 mph49%30.18 "HgN/A
6:00 PM69 °FMild.6 mph45%30.18 "HgN/A
5:00 PM69 °FMild.7 mph45%30.18 "HgN/A
4:00 PM69 °FMild.6 mph49%30.18 "HgN/A
3:00 PM68 °FMild.7 mph52%30.17 "HgN/A
2:00 PM68 °FMild.6 mph55%30.16 "HgN/A
1:00 PM69 °FMild.6 mph54%30.15 "HgN/A
12:00 PM65 °FMild.7 mph56%30.13 "HgN/A
11:00 AM65 °FMild.7 mph64%30.12 "HgN/A
10:00 AM62 °FCool.7 mph74%30.10 "HgN/A
9:00 AM59 °FCool.7 mph80%30.09 "HgN/A
Weather by CustomWeather, © 2014

See weather overviewHow to use our weather pages